Simultaneous Nadir Overpasses (SNOs) Predictions

Prediction of SNOs between NOAA-20 and LANDSAT-8 Satellite Orbit:

Table of predicted SNOs for the next 14.0 days since TLE Epoch: 10/22/2022
Index Date (NOAA-20) Time (NOAA-20) Lat,Lon (NOAA-20) SZA (NOAA-20 ) Date (LANDSAT-8) Time (LANDSAT-8) Lat,Lon (LANDSAT-8) SZA (LANDSAT-8 ) Distance(km) Time Diff (sec)
1 10/23/2022 07:23:07 70.02, 65.59 81.34 10/23/2022 07:23:44 70.05, 65.58 81.37 3.05 37
2 10/23/2022 08:13:49 -69.93,-126.95 98.74 10/23/2022 08:13:14 -69.94,-126.94 98.74 0.74 35
3 10/25/2022 22:49:29 -70.78, 12.85 96.98 10/25/2022 22:50:37 -70.66, 14.71 97.10 69.34 68
4 10/25/2022 23:40:00 69.99,-178.59 82.24 10/25/2022 23:40:14 70.01,-178.60 82.26 2.25 14
5 10/26/2022 00:30:42 -69.90, -11.13 97.85 10/26/2022 00:29:44 -69.90, -11.12 97.84 0.74 58
6 10/28/2022 15:06:10 -70.07, 129.75 96.79 10/28/2022 15:07:18 -70.07, 129.71 96.80 1.85 68
7 10/28/2022 15:56:54 69.97, -62.78 83.12 10/28/2022 15:56:45 69.96, -62.80 83.11 1.13 9
8 10/28/2022 16:47:31 -69.60, 105.08 97.24 10/28/2022 16:46:19 -69.63, 104.38 97.21 27.11 72
9 10/31/2022 07:23:04 -70.05,-114.43 95.94 10/31/2022 07:23:48 -70.05,-114.43 95.93 0.97 44
10 10/31/2022 08:13:48 69.94, 53.03 83.98 10/31/2022 08:13:15 69.94, 53.06 83.98 1.21 33
11 11/02/2022 22:49:30 70.87,-167.29 85.74 11/02/2022 22:50:37 70.73,-165.19 85.61 78.21 67
12 11/02/2022 23:39:58 -70.02, 1.37 95.10 11/02/2022 23:40:18 -70.03, 1.41 95.10 1.48 20
13 11/03/2022 00:30:42 69.93, 168.83 84.81 11/03/2022 00:29:45 69.92, 168.90 84.80 2.98 57



Historial Predications of SNOs between NOAA-20 and LANDSAT-8
